This is the latest recevied weather packets stored in our database for station/object SP1BMW-13. If no packets are shown the sender has not sent any weather packets the latest 10 day(s).
| Time | Temp. | Humidity | Pressure | Rain* | Wind** | Luminosity | Snow |
|---|---|---|---|---|---|---|---|
| 1787391302 | 19.44° C | 58% | 1009.1 hPa | 0 mm | 1.34 m/s, 295° | 425 W/m² | - |
| 1787391242 | 19.44° C | 57% | 1009 hPa | 0 mm | 3.13 m/s, 255° | 706 W/m² | - |
| 1787391182 | 19.44° C | 56% | 1008.9 hPa | 0 mm | 2.24 m/s, 305° | 364 W/m² | - |
| 1787391122 | 19.44° C | 56% | 1009.2 hPa | 0 mm | 4.02 m/s, 242° | 439 W/m² | - |
| 1787391061 | 19.44° C | 57% | 1009 hPa | 0 mm | 1.34 m/s, 302° | 627 W/m² | - |
| 1787391002 | 19.44° C | 55% | 1008.9 hPa | 0 mm | 1.79 m/s, 303° | 645 W/m² | - |
| 1787390942 | 19.44° C | 56% | 1009 hPa | 0 mm | 3.58 m/s, 171° | 645 W/m² | - |
| 1787390881 | 19.44° C | 55% | 1008.9 hPa | 0 mm | 2.68 m/s, 233° | 640 W/m² | - |
| 1787390822 | 19.44° C | 54% | 1008.9 hPa | 0 mm | 3.13 m/s, 301° | 627 W/m² | - |
| 1787390762 | 19.44° C | 55% | 1009.1 hPa | 0 mm | 3.13 m/s, 190° | 617 W/m² | - |
| 1787390701 | 19.44° C | 56% | 1008.8 hPa | 0 mm | 2.68 m/s, 159° | 584 W/m² | - |
| 1787390642 | 19.44° C | 59% | 1008.9 hPa | 0 mm | 1.79 m/s, 237° | 572 W/m² | - |
| 1787390582 | 19.44° C | 58% | 1008.8 hPa | 0 mm | 2.68 m/s, 228° | 607 W/m² | - |
| 1787390521 | 19.44° C | 58% | 1008.8 hPa | 0 mm | 4.02 m/s, 246° | 631 W/m² | - |
| 1787390462 | 19.44° C | 59% | 1008.9 hPa | 0 mm | 3.13 m/s, 203° | 631 W/m² | - |
| 1787390402 | 19.44° C | 59% | 1009 hPa | 0 mm | 0.89 m/s, 270° | 623 W/m² | - |
| 1787390342 | 19.44° C | 57% | 1008.9 hPa | 0 mm | 1.34 m/s, 239° | 601 W/m² | - |
| 1787390282 | 19.44° C | 59% | 1008.9 hPa | 0 mm | 2.24 m/s, 127° | 561 W/m² | - |
| 1787390222 | 19.44° C | 58% | 1008.7 hPa | 0 mm | 2.68 m/s, 252° | 583 W/m² | - |
| 1787390162 | 19.44° C | 59% | 1008.8 hPa | 0 mm | 1.34 m/s, 214° | 585 W/m² | - |
| 1787390101 | 18.89° C | 60% | 1008.9 hPa | 0 mm | 1.34 m/s, 263° | 573 W/m² | - |
| 1787390042 | 18.89° C | 63% | 1008.8 hPa | 0 mm | 1.79 m/s, 260° | 261 W/m² | - |
| 1787389981 | 18.89° C | 64% | 1008.5 hPa | 0 mm | 0.45 m/s, 318° | 317 W/m² | - |
| 1787389921 | 18.89° C | 62% | 1008.6 hPa | 0 mm | 2.68 m/s, 304° | 670 W/m² | - |
| 1787389862 | 19.44° C | 62% | 1008.7 hPa | 0 mm | 1.79 m/s, 214° | 658 W/m² | - |
* Rain latest hour (hover to see other rain measurements)
** Current wind speed in m/s (hover to see current wind gust speed)